{"data":{"norad_id":64839,"epoch":"2026-05-25T04:00:03.998880Z","epoch_age_seconds":50679,"freshness":"FRESH","line1":"1 64839U 25151Z   26145.16671295  .00034599  00000+0  28871-2 0  9996","line2":"2 64839  51.8913 270.8352 0003779 188.8532 162.2639 14.98250544  4585","mean_motion":14.98250544,"eccentricity":0.0003779,"inclination_deg":51.8913,"raan_deg":270.8352,"arg_perigee_deg":188.8532,"mean_anomaly_deg":162.2639,"bstar":0.0028871,"rev_number":458,"period_min":96.112095921922,"perigee_km":569.67504217708,"apogee_km":574.92818368073,"semimajor_km":6950.4386129289,"source":"CELESTRAK","updated_at":"2026-05-25T13:38:04.828388Z"}}